QPF
0.00 0.00 0.00 0.00 0.00 0.00 0.00 0.00 0.00 0.00 0.00 0.00 0.00 0.00 0.00 0.00 0.00 0.00 0.00 0.00 0.00 0.00 0.00 0.00 0.00 0.00 0.00 0.00 0.00 0.00 0.08 0.03 0.01 0.04 0.10 0.00 0.00 0.00 0.00 0.01 0.01 0.02 0.00 0.00 0.00
0.00 0.00 0.00 0.00 0.00 0.00 0.00 0.00 0.00 0.00 0.00 0.00 0.00 0.00 0.00 0.00 0.00 0.00 0.00 0.00 0.00 0.00 0.00 0.00 0.00 0.00 0.00 0.00 0.00 0.02 0.03 0.04 0.00 0.00 0.00 0.00 0.00 0.00 0.04 0.01 0.01 0.02 0.00 0.00 0.00
0.00 0.00 0.00 0.00 0.00 0.00 0.00 0.00 0.00 0.00 0.00 0.00 0.00 0.00 0.00 0.00 0.00 0.00 0.00 0.00 0.00 0.00 0.00 0.00 0.00 0.00 0.00 0.00 0.00 0.03 0.06 0.04 0.00 0.00 0.01 0.00 0.08 0.08 0.13 0.14 0.01 0.00 0.00 0.00 0.00
0.00 0.00 0.00 0.00 0.00 0.00 0.00 0.00 0.00 0.00 0.00 0.00 0.00 0.00 0.00 0.00 0.00 0.00 0.00 0.00 0.00 0.00 0.00 0.00 0.00 0.00 0.00 0.00 0.00 0.03 0.03 0.01 0.00 0.00 0.02 0.03 0.03 0.10 0.09 0.06 0.00 0.00 0.00 0.00 0.00
0.00 0.00 0.00 0.00 0.00 0.00 0.00 0.00 0.00 0.00 0.00 0.00 0.00 0.00 0.00 0.00 0.00 0.00 0.00 0.00 0.00 0.00 0.00 0.00 0.00 0.00 0.00 0.00 0.00 0.01 0.01 0.00 0.00 0.00 0.01 0.03 0.01 0.04 0.07 0.00 0.00 0.00 0.00 0.00 0.00
0.00 0.00 0.00 0.00 0.00 0.00 0.00 0.00 0.00 0.00 0.00 0.00 0.00 0.00 0.00 0.00 0.00 0.00 0.00 0.00 0.00 0.00 0.00 0.00 0.00 0.00 0.00 0.00 0.00 0.00 0.01 0.00 0.00 0.01 0.00 0.00 0.00 0.00 0.06 0.00 0.02 0.01 0.00 0.00 0.00
0.00 0.00 0.00 0.00 0.00 0.00 0.00 0.00 0.00 0.00 0.00 0.00 0.00 0.00 0.00 0.00 0.00 0.00 0.00 0.00 0.00 0.00 0.00 0.00 0.00 0.00 0.00 0.00 0.00 0.00 0.00 0.00 0.00 0.01 0.00 0.00 0.03 0.09 0.03 0.00 0.01 0.00 0.00 0.00 0.00
0.00 0.00 0.00 0.00 0.00 0.00 0.00 0.00 0.00 0.00 0.00 0.00 0.00 0.00 0.00 0.00 0.00 0.00 0.00 0.00 0.00 0.00 0.00 0.00 0.00 0.00 0.00 0.00 0.00 0.00 0.00 0.00 0.00 0.00 0.00 0.01 0.08 0.14 0.03 0.01 0.01 0.00 0.00 0.00 0.00
0.00 0.00 0.00 0.00 0.00 0.00 0.00 0.00 0.00 0.00 0.00 0.00 0.00 0.00 0.00 0.00 0.00 0.00 0.00 0.00 0.00 0.00 0.00 0.00 0.00 0.00 0.00 0.00 0.00 0.00 0.00 0.00 0.00 0.00 0.03 0.07 0.12 0.11 0.05 0.04 0.01 0.00 0.00 0.00 0.00
0.00 0.00 0.00 0.00 0.00 0.00 0.00 0.00 0.00 0.00 0.00 0.00 0.00 0.00 0.00 0.00 0.00 0.00 0.00 0.00 0.00 0.00 0.00 0.00 0.00 0.00 0.00 0.00 0.00 0.00 0.00 0.00 0.00 0.00 0.02 0.06 0.04 0.04 0.04 0.07 0.00 0.00 0.00 0.00 0.00
0.00 0.00 0.00 0.00 0.00 0.00 0.00 0.00 0.00 0.00 0.00 0.00 0.00 0.00 0.00 0.00 0.00 0.00 0.00 0.00 0.00 0.00 0.00 0.00 0.00 0.00 0.00 0.00 0.00 0.00 0.00 0.01 0.00 0.00 0.01 0.04 0.04 0.03 0.07 0.07 0.00 0.00 0.00 0.00 0.00
0.00 0.00 0.00 0.00 0.00 0.00 0.00 0.00 0.00 0.00 0.00 0.00 0.00 0.00 0.00 0.00 0.00 0.00 0.00 0.00 0.00 0.00 0.00 0.00 0.00 0.00 0.00 0.00 0.00 0.00 0.00 0.00 0.01 0.02 0.02 0.01 0.01 0.04 0.16 0.15 0.01 0.02 0.00 0.00 0.00
0.00 0.00 0.00 0.00 0.00 0.00 0.00 0.00 0.00 0.00 0.00 0.00 0.00 0.00 0.00 0.00 0.00 0.00 0.00 0.00 0.00 0.00 0.00 0.00 0.00 0.00 0.00 0.00 0.00 0.00 0.00 0.00 0.01 0.03 0.02 0.00 0.01 0.01 0.05 0.07 0.09 0.02 0.01 0.00 0.00
0.00 0.00 0.00 0.00 0.00 0.00 0.00 0.00 0.00 0.00 0.00 0.00 0.00 0.00 0.00 0.00 0.00 0.00 0.00 0.00 0.00 0.00 0.00 0.00 0.00 0.00 0.00 0.00 0.00 0.00 0.00 0.00 0.00 0.02 0.00 0.00 0.02 0.03 0.05 0.11 0.13 0.10 0.02 0.00 0.00
0.00 0.00 0.00 0.00 0.00 0.00 0.00 0.00 0.00 0.00 0.00 0.00 0.00 0.00 0.00 0.00 0.00 0.00 0.00 0.00 0.00 0.00 0.00 0.00 0.00 0.00 0.00 0.00 0.00 0.00 0.00 0.00 0.00 0.00 0.00 0.00 0.01 0.04 0.05 0.05 0.08 0.08 0.01 0.00 0.01
0.00 0.00 0.00 0.00 0.00 0.00 0.00 0.00 0.00 0.00 0.00 0.00 0.00 0.00 0.00 0.00 0.00 0.00 0.00 0.00 0.00 0.00 0.00 0.00 0.00 0.00 0.00 0.00 0.00 0.00 0.00 0.00 0.00 0.00 0.00 0.00 0.00 0.01 0.06 0.10 0.05 0.01 0.01 0.00 0.00
0.00 0.00 0.00 0.00 0.00 0.00 0.00 0.00 0.00 0.00 0.00 0.00 0.00 0.00 0.00 0.00 0.00 0.00 0.00 0.00 0.00 0.00 0.00 0.00 0.00 0.00 0.00 0.00 0.00 0.00 0.00 0.00 0.00 0.00 0.00 0.00 0.00 0.03 0.02 0.04 0.10 0.09 0.23 0.15 0.09
0.00 0.00 0.00 0.00 0.00 0.00 0.00 0.00 0.01 0.00 0.00 0.00 0.00 0.00 0.00 0.00 0.00 0.00 0.00 0.00 0.00 0.00 0.00 0.00 0.00 0.00 0.00 0.00 0.00 0.00 0.00 0.00 0.00 0.00 0.00 0.00 0.02 0.02 0.00 0.00 0.02 0.08 0.14 0.22 0.08
0.00 0.00 0.00 0.00 0.00 0.00 0.00 0.00 0.00 0.00 0.00 0.00 0.00 0.00 0.00 0.00 0.00 0.00 0.00 0.00 0.00 0.00 0.00 0.00 0.00 0.00 0.00 0.00 0.00 0.00 0.00 0.00 0.00 0.00 0.00 0.00 0.00 0.01 0.00 0.00 0.00 0.00 0.00 0.06 0.11
0.00 0.00 0.00 0.00 0.00 0.00 0.00 0.00 0.00 0.00 0.00 0.00 0.00 0.00 0.00 0.00 0.00 0.00 0.00 0.00 0.00 0.00 0.00 0.00 0.00 0.00 0.00 0.00 0.00 0.00 0.00 0.00 0.00 0.00 0.00 0.00 0.00 0.00 0.00 0.00 0.00 0.00 0.00 0.00 0.06
0.00 0.00 0.00 0.00 0.00 0.00 0.00 0.00 0.00 0.00 0.00 0.00 0.00 0.00 0.00 0.00 0.00 0.00 0.00 0.00 0.00 0.00 0.00 0.00 0.00 0.00 0.00 0.00 0.00 0.00 0.00 0.00 0.00 0.00 0.00 0.04 0.09 0.01 0.00 0.00 0.00 0.00 0.00 0.00 0.00
0.00 0.00 0.00 0.00 0.00 0.00 0.00 0.00 0.00 0.00 0.00 0.00 0.00 0.00 0.00 0.00 0.00 0.00 0.00 0.00 0.00 0.00 0.00 0.00 0.00 0.00 0.00 0.00 0.00 0.00 0.00 0.00 0.00 0.00 0.00 0.01 0.06 0.02 0.00 0.00 0.00 0.00 0.00 0.00 0.00
0.00 0.00 0.00 0.00 0.00 0.00 0.00 0.00 0.00 0.00 0.00 0.00 0.00 0.00 0.00 0.00 0.00 0.00 0.00 0.00 0.00 0.00 0.00 0.00 0.00 0.00 0.00 0.00 0.00 0.00 0.00 0.00 0.00 0.00 0.00 0.00 0.01 0.01 0.01 0.00 0.00 0.00 0.00 0.00 0.00
0.00 0.00 0.00 0.00 0.00 0.00 0.00 0.00 0.00 0.00 0.00 0.00 0.00 0.00 0.00 0.00 0.00 0.00 0.00 0.00 0.00 0.00 0.00 0.00 0.00 0.00 0.00 0.00 0.00 0.00 0.00 0.00 0.00 0.00 0.00 0.00 0.00 0.00 0.00 0.00 0.00 0.00 0.00 0.00 0.00
0.00 0.00 0.00 0.00 0.00 0.00 0.00 0.00 0.00 0.00 0.00 0.00 0.00 0.00 0.00 0.00 0.00 0.00 0.00 0.00 0.00 0.00 0.00 0.00 0.00 0.00 0.00 0.00 0.00 0.00 0.00 0.00 0.00 0.00 0.00 0.02 0.00 0.00 0.00 0.00 0.00 0.00 0.00 0.00 0.00
0.00 0.00 0.00 0.00 0.00 0.00 0.00 0.00 0.00 0.00 0.00 0.00 0.00 0.00 0.00 0.00 0.00 0.00 0.00 0.00 0.00 0.00 0.00 0.00 0.00 0.00 0.00 0.00 0.00 0.00 0.00 0.00 0.00 0.00 0.00 0.00 0.00 0.00 0.00 0.00 0.00 0.00 0.00 0.00 0.00
0.00 0.00 0.00 0.00 0.00 0.00 0.00 0.00 0.00 0.00 0.00 0.00 0.00 0.00 0.00 0.00 0.00 0.00 0.00 0.00 0.00 0.00 0.00 0.00 0.00 0.00 0.00 0.00 0.00 0.00 0.00 0.00 0.00 0.00 0.00 0.00 0.00 0.00 0.00 0.00 0.00 0.00 0.00 0.00 0.00
MSLP
1016.68 1016.45 1016.15 1015.89 1015.63 1015.35 1015.04 1014.76 1014.45 1014.18 1013.91 1013.69 1013.51 1013.25 1013.08 1012.82 1012.48 1011.80 1009.40 1007.20 1006.73 1007.55 1007.68 1006.79 1006.68 1005.98 1005.16 1004.65 1004.30 1004.83 1007.09 1006.19 1005.24 1005.19 1006.20 1007.06 1006.99 1007.23 1007.22 1006.55 1006.94 1006.89 1007.68 1008.27 1009.20
1016.65 1016.37 1016.12 1015.77 1015.43 1015.15 1014.86 1014.57 1014.28 1014.02 1013.78 1013.60 1013.40 1013.20 1013.02 1012.72 1011.66 1009.34 1006.80 1006.91 1007.19 1007.38 1007.37 1006.04 1005.41 1004.96 1004.60 1004.09 1003.66 1005.06 1006.88 1005.90 1004.49 1004.71 1005.98 1007.07 1007.19 1007.57 1007.36 1007.37 1007.13 1007.20 1008.11 1008.89 1009.14
1016.53 1016.18 1015.97 1015.63 1015.32 1014.93 1014.71 1014.38 1014.08 1013.85 1013.72 1013.50 1013.28 1013.07 1012.91 1012.47 1010.29 1005.81 1005.01 1006.39 1007.01 1007.36 1006.59 1005.33 1004.64 1004.49 1003.88 1003.13 1002.68 1004.70 1005.49 1004.77 1004.59 1004.47 1005.94 1006.77 1007.67 1008.47 1008.33 1007.70 1007.29 1007.57 1008.26 1009.00 1009.17
1016.46 1016.09 1015.76 1015.48 1015.13 1014.81 1014.45 1014.13 1013.93 1013.62 1013.47 1013.40 1013.08 1012.92 1012.73 1011.77 1007.77 1005.77 1006.21 1006.36 1006.87 1007.02 1006.57 1004.90 1004.19 1003.80 1003.11 1002.27 1001.82 1003.00 1003.71 1003.60 1003.92 1004.91 1006.19 1006.86 1008.06 1009.43 1009.69 1008.15 1008.02 1008.15 1008.72 1008.91 1009.17
1016.34 1016.06 1015.67 1015.35 1014.95 1014.59 1014.25 1013.84 1013.62 1013.42 1013.18 1013.15 1013.01 1012.77 1012.18 1009.71 1006.11 1006.08 1006.43 1006.65 1006.75 1006.93 1005.99 1004.46 1003.73 1003.23 1002.59 1001.65 1001.48 1001.87 1002.23 1002.83 1003.69 1005.03 1006.63 1007.76 1008.51 1009.62 1010.14 1009.23 1008.71 1008.56 1008.88 1009.09 1009.07
1015.99 1015.76 1015.42 1015.09 1014.67 1014.27 1013.98 1013.65 1013.30 1013.11 1012.96 1012.87 1012.87 1012.80 1011.42 1007.44 1004.36 1005.58 1005.81 1006.26 1005.84 1006.17 1005.27 1004.00 1003.27 1002.93 1002.00 1001.23 1000.96 1000.79 1002.17 1002.14 1003.45 1004.67 1006.42 1007.81 1009.41 1009.74 1010.36 1009.49 1009.17 1008.87 1008.97 1009.07 1009.06
1015.71 1015.38 1015.12 1014.80 1014.35 1014.01 1013.65 1013.28 1012.97 1012.71 1012.64 1012.64 1012.64 1012.18 1009.58 1005.50 1004.06 1004.84 1005.28 1005.51 1005.26 1005.33 1004.22 1003.62 1003.08 1002.65 1002.51 1001.35 1000.63 1000.99 1001.04 1001.50 1003.36 1004.72 1005.78 1007.79 1009.67 1010.20 1010.38 1009.43 1009.05 1008.65 1008.80 1008.84 1008.98
1015.39 1015.05 1014.68 1014.48 1014.05 1013.71 1013.31 1012.92 1012.57 1012.24 1012.28 1012.49 1012.46 1011.22 1007.29 1004.40 1004.33 1004.38 1004.73 1004.85 1004.83 1004.57 1003.68 1003.50 1003.22 1003.05 1002.41 1001.47 1000.75 1000.61 1000.72 1001.01 1002.31 1003.82 1005.46 1006.84 1009.56 1010.77 1010.56 1009.72 1008.66 1008.59 1008.56 1008.62 1008.88
1015.08 1014.59 1014.27 1014.00 1013.73 1013.41 1013.02 1012.55 1012.09 1011.35 1011.88 1012.27 1011.93 1009.85 1005.51 1004.63 1004.28 1004.01 1003.94 1003.83 1004.19 1004.19 1003.80 1003.50 1003.75 1003.63 1002.76 1001.82 1000.82 1000.40 1000.09 1000.31 1001.87 1002.93 1005.46 1007.27 1010.07 1011.41 1010.79 1009.89 1008.62 1008.48 1008.47 1008.59 1008.92
1014.73 1014.26 1013.89 1013.68 1013.47 1013.24 1012.85 1012.44 1011.64 1011.61 1011.63 1011.11 1009.69 1008.33 1004.80 1003.72 1003.57 1003.59 1003.68 1003.68 1003.86 1003.64 1003.77 1003.87 1004.11 1003.49 1002.45 1001.40 999.98 999.71 999.48 1000.14 1001.12 1002.95 1005.39 1007.77 1010.01 1011.32 1011.11 1010.22 1008.80 1008.39 1008.47 1008.65 1009.18
1014.33 1013.87 1013.64 1013.17 1013.13 1013.06 1012.74 1011.39 1011.20 1009.99 1008.71 1006.43 1005.41 1004.05 1002.65 1002.87 1003.22 1003.57 1003.56 1003.74 1003.79 1003.83 1003.63 1003.87 1003.47 1002.20 1001.43 1000.71 999.68 998.79 998.82 1000.11 1000.89 1002.94 1005.05 1007.57 1010.05 1011.19 1011.51 1010.07 1008.92 1008.55 1008.50 1008.79 1009.33
1014.34 1013.81 1013.26 1013.03 1012.71 1012.88 1012.85 1009.39 1006.64 1005.91 1005.39 1005.09 1003.75 1003.06 1001.89 1002.32 1003.10 1003.41 1003.73 1003.66 1003.66 1003.29 1003.22 1002.83 1002.13 1001.22 1000.86 1000.09 999.51 998.98 999.28 999.91 1003.00 1003.09 1005.19 1007.89 1010.05 1011.39 1011.73 1010.89 1009.38 1008.56 1008.46 1008.82 1009.47
1013.94 1013.64 1013.27 1012.74 1012.48 1012.15 1009.90 1007.07 1006.13 1005.31 1004.35 1002.91 1003.01 1002.77 1002.21 1002.55 1002.51 1002.85 1003.48 1003.04 1003.05 1002.91 1002.36 1001.43 1000.85 1000.71 1000.07 999.32 998.79 998.30 998.33 999.64 1002.80 1003.14 1005.20 1007.75 1010.03 1011.79 1012.20 1011.49 1010.59 1008.82 1008.57 1008.90 1009.54
1013.53 1013.13 1013.05 1012.81 1012.35 1008.98 1007.06 1006.36 1005.69 1005.13 1003.79 1001.99 1002.23 1001.72 1001.93 1002.24 1001.77 1001.97 1003.03 1002.76 1002.25 1002.11 1001.73 1001.12 1000.13 999.94 999.43 998.83 998.46 997.74 997.78 1000.19 1001.04 1001.71 1004.08 1005.93 1008.69 1010.29 1011.19 1011.07 1009.43 1009.34 1009.33 1008.99 1009.53
1013.53 1012.95 1012.55 1012.86 1010.49 1007.45 1006.13 1005.90 1005.71 1005.23 1002.59 1001.73 1001.39 1000.93 1001.36 1001.87 1000.97 1001.85 1002.60 1002.36 1001.54 1001.43 1001.21 1000.40 999.89 999.31 998.97 998.62 998.20 997.70 997.46 998.99 998.55 999.72 1002.31 1004.60 1006.07 1008.71 1010.37 1008.72 1010.36 1009.94 1009.17 1009.17 1009.43
1013.01 1012.73 1012.51 1011.49 1010.27 1007.18 1005.89 1005.68 1005.68 1004.96 1001.95 1001.03 1001.19 1001.28 1001.28 1001.32 1000.91 1001.51 1002.34 1002.38 1001.55 1000.96 1000.66 1000.13 999.82 999.08 999.10 998.89 998.52 998.29 998.08 997.88 998.72 999.33 1000.61 1002.47 1004.20 1008.52 1010.47 1011.00 1008.93 1009.11 1009.04 1009.33 1009.66
1012.61 1012.23 1012.12 1009.23 1006.99 1005.77 1005.85 1005.54 1004.89 1003.65 1002.58 1001.47 1000.96 1001.23 1001.04 1001.10 1000.95 1001.50 1002.13 1002.11 1001.60 1000.97 1000.39 1000.29 999.30 999.26 999.54 999.09 998.67 998.74 998.63 998.45 998.88 999.20 999.49 1000.89 1003.47 1006.85 1009.67 1010.50 1011.05 1010.87 1011.01 1010.69 1010.37
1012.07 1011.73 1009.49 1008.42 1006.65 1006.03 1005.97 1005.51 1005.86 1006.03 1003.59 1002.32 1001.17 1001.18 1001.21 1000.95 1000.99 1001.61 1002.09 1001.92 1001.66 1000.71 999.93 1000.08 999.27 999.13 999.33 999.18 998.78 998.81 998.76 998.17 998.40 998.99 999.57 1001.06 1004.05 1007.35 1009.42 1011.17 1011.48 1012.45 1012.45 1011.84 1011.18
1011.35 1009.29 1008.25 1006.35 1006.09 1005.94 1005.79 1007.20 1007.27 1006.23 1004.23 1002.21 1001.87 1001.30 1001.40 1001.94 1001.79 1001.62 1001.83 1001.62 1001.25 1000.82 1001.41 1000.10 999.16 999.33 999.78 999.75 1000.31 999.09 998.92 998.35 998.05 998.67 999.56 1002.60 1006.20 1008.26 1009.67 1011.28 1012.71 1013.21 1012.84 1012.77 1012.32
1010.90 1007.83 1005.40 1004.65 1004.86 1005.15 1005.42 1005.90 1005.32 1004.31 1003.70 1002.82 1002.03 1001.87 1002.76 1003.93 1002.97 1001.91 1001.93 1002.75 1002.31 1001.75 1002.17 1001.40 1000.28 999.48 1000.43 1000.65 1000.70 1000.24 999.82 999.32 998.73 999.09 999.53 1002.92 1005.29 1006.81 1009.41 1011.29 1012.26 1012.99 1013.31 1013.49 1013.02
1010.22 1006.91 1003.92 1003.96 1004.26 1004.47 1005.65 1005.59 1004.08 1004.32 1003.89 1003.19 1004.09 1003.18 1003.41 1004.42 1002.65 1002.49 1003.95 1003.61 1003.71 1003.11 1002.85 1002.09 1001.80 1001.26 1000.91 1001.01 1000.98 1000.84 1000.31 999.66 999.26 999.10 999.81 1003.47 1006.44 1007.71 1009.41 1011.61 1012.51 1013.46 1014.08 1014.24 1014.06
1008.73 1005.81 1003.83 1004.02 1003.77 1002.83 1004.27 1004.01 1004.91 1004.07 1004.01 1003.60 1004.93 1005.83 1004.00 1004.13 1004.08 1004.69 1004.35 1004.65 1004.85 1004.54 1003.75 1002.66 1002.05 1002.20 1001.29 1001.33 1001.37 1000.57 1000.10 999.89 999.57 999.63 1000.15 1004.11 1008.42 1009.41 1010.50 1011.80 1013.01 1014.05 1014.78 1014.91 1014.69
1008.36 1004.51 1003.66 1003.58 1003.08 1002.43 1003.69 1004.30 1004.72 1004.42 1004.33 1004.13 1004.02 1004.34 1004.38 1004.54 1004.89 1005.50 1005.12 1005.61 1005.52 1004.99 1005.41 1004.57 1002.73 1002.38 1001.94 1002.16 1001.90 1001.57 1000.93 1000.18 999.91 1000.09 1000.96 1004.19 1008.68 1010.50 1011.53 1012.71 1013.76 1014.27 1014.98 1015.15 1015.19
1008.58 1004.43 1003.52 1003.77 1003.46 1003.11 1003.88 1004.29 1004.76 1005.64 1005.21 1005.14 1004.87 1004.74 1004.54 1004.97 1004.77 1005.14 1005.23 1005.74 1005.88 1005.77 1006.29 1005.69 1004.18 1003.73 1003.88 1002.97 1001.87 1001.96 1001.61 1001.06 1001.01 1001.22 1002.07 1005.49 1008.91 1011.19 1012.46 1013.67 1014.43 1014.64 1015.07 1015.23 1015.49
1008.39 1004.84 1004.63 1003.67 1003.77 1004.21 1004.68 1004.85 1005.04 1005.20 1005.77 1005.79 1005.40 1005.21 1004.59 1004.85 1005.29 1004.68 1005.05 1005.73 1006.07 1006.43 1006.07 1005.84 1005.19 1004.67 1004.25 1004.11 1003.32 1002.03 1001.89 1001.85 1002.38 1002.62 1003.79 1007.39 1009.48 1011.67 1012.97 1013.97 1014.55 1014.93 1015.16 1015.27 1015.38
1008.01 1006.20 1005.43 1005.22 1005.51 1004.99 1005.39 1005.28 1005.54 1005.95 1005.87 1005.67 1005.82 1005.68 1005.41 1005.03 1006.16 1005.41 1005.18 1005.47 1005.49 1006.23 1006.29 1006.42 1006.28 1005.96 1005.35 1004.58 1004.34 1003.34 1002.72 1002.68 1003.15 1003.70 1005.22 1007.19 1009.67 1011.69 1013.10 1014.04 1014.77 1015.11 1015.15 1015.19 1015.33
1008.23 1007.25 1006.50 1006.25 1005.49 1004.93 1005.06 1005.74 1006.26 1006.77 1007.00 1006.59 1006.33 1005.96 1005.98 1006.27 1006.19 1005.80 1005.21 1005.46 1005.82 1006.31 1006.64 1007.04 1007.03 1006.81 1006.11 1005.59 1004.81 1004.38 1004.10 1003.87 1004.15 1004.49 1004.89 1007.00 1009.37 1011.18 1012.69 1013.65 1014.45 1014.93 1015.25 1015.46 1015.61
Thickness
5704 5705 5707 5708 5710 5712 5714 5716 5719 5721 5725 5728 5731 5734 5738 5744 5749 5758 5773 5800 5807 5806 5808 5814 5815 5818 5827 5823 5832 5829 5768 5777 5796 5797 5791 5797 5793 5804 5814 5812 5812 5815 5807 5811 5812
5698 5699 5700 5703 5705 5708 5710 5712 5715 5717 5720 5724 5727 5731 5735 5740 5752 5767 5798 5801 5803 5805 5803 5808 5807 5818 5811 5818 5827 5794 5752 5773 5818 5818 5797 5794 5795 5796 5800 5800 5804 5807 5811 5811 5813
5692 5693 5695 5697 5700 5703 5704 5707 5711 5714 5716 5719 5724 5728 5732 5738 5754 5791 5811 5804 5802 5802 5810 5819 5822 5816 5808 5825 5827 5790 5766 5804 5812 5824 5810 5801 5793 5792 5788 5789 5803 5798 5802 5804 5809
5687 5688 5690 5692 5695 5698 5701 5703 5706 5710 5713 5715 5720 5724 5728 5739 5756 5793 5797 5800 5800 5802 5804 5814 5814 5805 5806 5811 5834 5793 5813 5821 5822 5819 5804 5798 5797 5776 5775 5792 5809 5809 5807 5807 5804
5682 5683 5685 5687 5691 5694 5697 5701 5704 5707 5711 5712 5715 5720 5729 5742 5769 5789 5791 5794 5797 5797 5799 5808 5805 5807 5800 5820 5829 5819 5825 5828 5825 5815 5802 5795 5788 5775 5771 5795 5808 5808 5805 5804 5807
5679 5679 5681 5684 5687 5692 5695 5698 5702 5705 5708 5710 5711 5714 5726 5736 5799 5789 5792 5791 5796 5793 5800 5813 5811 5818 5815 5821 5823 5838 5824 5828 5823 5814 5803 5786 5773 5781 5773 5796 5797 5802 5800 5804 5808
5677 5678 5678 5681 5684 5687 5692 5696 5700 5704 5707 5708 5709 5715 5730 5756 5794 5791 5791 5789 5797 5797 5799 5815 5822 5814 5816 5813 5840 5835 5821 5829 5812 5808 5801 5795 5764 5762 5777 5792 5795 5800 5801 5804 5809
5673 5674 5677 5678 5682 5684 5688 5694 5698 5702 5704 5704 5706 5716 5732 5783 5786 5786 5790 5787 5797 5804 5810 5817 5821 5812 5811 5829 5828 5818 5824 5802 5816 5814 5807 5800 5754 5759 5774 5783 5795 5799 5801 5804 5807
5672 5674 5675 5677 5679 5682 5686 5691 5696 5703 5701 5701 5705 5717 5738 5776 5769 5783 5790 5782 5789 5796 5805 5814 5807 5794 5804 5795 5798 5812 5796 5810 5804 5825 5800 5789 5750 5756 5774 5783 5795 5799 5801 5802 5803
5671 5673 5674 5675 5677 5679 5682 5687 5693 5696 5697 5703 5716 5714 5749 5749 5769 5779 5787 5787 5778 5785 5783 5785 5780 5775 5787 5788 5776 5796 5807 5816 5809 5813 5798 5775 5755 5756 5767 5771 5792 5799 5802 5800 5798
5672 5674 5673 5675 5675 5675 5679 5692 5693 5698 5709 5724 5734 5741 5758 5768 5777 5767 5780 5774 5774 5769 5755 5768 5758 5762 5785 5803 5817 5828 5830 5813 5824 5814 5799 5781 5759 5757 5762 5777 5792 5797 5800 5799 5796
5669 5671 5673 5673 5673 5672 5672 5694 5715 5723 5710 5728 5743 5746 5766 5768 5745 5756 5773 5754 5753 5746 5762 5762 5756 5790 5801 5810 5812 5816 5809 5814 5784 5804 5792 5773 5755 5757 5757 5766 5786 5797 5801 5799 5794
5670 5669 5670 5673 5672 5675 5691 5708 5724 5727 5707 5727 5736 5734 5746 5754 5742 5746 5759 5760 5749 5745 5756 5760 5779 5796 5798 5803 5805 5816 5819 5807 5758 5792 5786 5767 5736 5736 5746 5758 5766 5796 5804 5802 5796
5672 5673 5670 5670 5674 5699 5702 5716 5724 5725 5690 5709 5718 5735 5743 5746 5737 5764 5763 5758 5756 5746 5759 5765 5792 5787 5791 5793 5810 5802 5843 5796 5794 5785 5760 5790 5729 5753 5753 5751 5747 5782 5789 5799 5797
5668 5671 5673 5667 5687 5696 5709 5718 5720 5712 5672 5712 5722 5751 5746 5734 5747 5745 5765 5757 5747 5753 5761 5760 5774 5780 5780 5793 5815 5810 5843 5819 5833 5815 5779 5780 5772 5760 5757 5741 5745 5763 5793 5799 5801
5670 5670 5670 5678 5681 5703 5713 5715 5708 5673 5672 5712 5724 5720 5724 5732 5740 5744 5742 5757 5765 5758 5765 5769 5794 5793 5787 5802 5812 5824 5817 5823 5818 5817 5775 5791 5796 5744 5734 5740 5782 5792 5798 5800 5798
5670 5672 5671 5689 5695 5714 5711 5700 5670 5671 5711 5707 5714 5719 5721 5721 5730 5728 5723 5726 5729 5725 5735 5756 5773 5789 5791 5784 5806 5804 5794 5767 5765 5771 5778 5818 5795 5760 5753 5759 5757 5767 5773 5783 5789
5672 5674 5689 5695 5706 5710 5699 5677 5632 5642 5683 5714 5723 5722 5710 5729 5730 5723 5717 5716 5740 5751 5752 5734 5740 5772 5787 5780 5789 5789 5791 5777 5747 5761 5788 5815 5754 5744 5761 5756 5754 5756 5766 5775 5780
5675 5692 5693 5708 5708 5706 5683 5619 5621 5645 5684 5706 5712 5711 5711 5706 5716 5721 5720 5724 5741 5755 5715 5742 5753 5784 5777 5787 5775 5780 5772 5815 5804 5812 5803 5770 5745 5751 5757 5752 5745 5749 5761 5764 5773
5678 5696 5708 5722 5717 5703 5676 5631 5668 5693 5697 5703 5697 5711 5683 5679 5695 5717 5717 5716 5715 5740 5744 5733 5728 5767 5766 5774 5773 5767 5796 5771 5787 5755 5773 5757 5751 5745 5746 5745 5748 5747 5752 5757 5769
5679 5687 5721 5728 5718 5693 5650 5651 5689 5696 5698 5692 5672 5690 5689 5672 5707 5709 5685 5706 5711 5719 5735 5736 5729 5733 5753 5745 5748 5758 5759 5776 5791 5799 5778 5735 5727 5758 5745 5743 5741 5742 5741 5746 5754
5687 5678 5723 5726 5691 5704 5669 5690 5674 5692 5699 5695 5674 5660 5684 5686 5679 5675 5681 5686 5705 5710 5708 5733 5730 5709 5731 5757 5769 5772 5770 5780 5761 5766 5793 5733 5701 5740 5744 5745 5738 5733 5734 5740 5748
5678 5702 5723 5720 5683 5699 5694 5685 5685 5685 5686 5687 5687 5689 5690 5680 5667 5671 5680 5690 5697 5700 5691 5709 5723 5707 5716 5733 5748 5740 5760 5775 5785 5791 5773 5743 5706 5728 5728 5725 5724 5725 5726 5731 5739
5676 5687 5704 5705 5706 5697 5684 5678 5672 5677 5678 5681 5680 5687 5685 5673 5687 5673 5676 5683 5692 5695 5686 5703 5708 5701 5675 5698 5735 5726 5744 5762 5762 5752 5770 5727 5697 5700 5705 5704 5709 5717 5720 5726 5729
5674 5687 5691 5682 5688 5687 5684 5678 5669 5666 5672 5675 5671 5675 5682 5670 5668 5680 5684 5679 5684 5677 5693 5695 5683 5699 5706 5710 5718 5731 5737 5745 5737 5753 5730 5691 5691 5689 5696 5697 5703 5708 5713 5717 5722
5665 5672 5683 5678 5677 5679 5663 5671 5666 5665 5667 5664 5661 5669 5676 5674 5659 5659 5679 5678 5678 5683 5682 5687 5670 5684 5683 5707 5707 5708 5724 5728 5731 5740 5718 5713 5691 5697 5697 5696 5694 5698 5706 5710 5715
5671 5677 5673 5658 5673 5677 5673 5668 5663 5663 5662 5668 5666 5666 5665 5663 5675 5682 5691 5688 5683 5673 5672 5670 5668 5667 5664 5689 5697 5685 5703 5712 5717 5726 5729 5698 5700 5697 5688 5687 5687 5691 5698 5702 5706